Weather History for Sandberg, CA

Change the Weather History Date:

Sunday, December 22, 2013

  Actual Average Record
Temperature  
Mean Temperature 51 °F 42 °F  
Max Temperature 57 °F 47 °F 64 °F (2005)
Min Temperature 45 °F 36 °F 11 °F (1990)
Degree Days  
Heating Degree Days 14 23  
Month to date heating degree days 431 494  
Since 1 July heating degree days 985 1273  
Cooling Degree Days 0 0  
Month to date cooling degree days 0 0  
Year to date cooling degree days 1565 998  
Growing Degree Days 1 (Base 50)    
Moisture  
Dew Point 26 °F    
Average Humidity 38    
Maximum Humidity 45    
Minimum Humidity 30    
Precipitation  
Precipitation 0.00 in 0.08 in 1.85 in (1971)
Month to date precipitation 0.08 1.42  
Year to date precipitation 3.69 11.50  
Since 1 July precipitation 0.78 3.02  
Sea Level Pressure  
Sea Level Pressure 30.17 in    
Wind  
Wind Speed 8 mph (ENE)    
Max Wind Speed 15 mph    
Max Gust Speed 21 mph    
Visibility 10 miles    
Events      
T = Trace of Precipitation, MM = Missing Value Source: NWS Daily Summary

Daily Weather History Graph

Daily Weather History Graph

Search for Another Location

Airport:

Trip Planner

Search our weather history database for the weather conditions in past years. The results will help you decide how hot, cold, wet, or windy it might be!

Date:

Astronomy

Dec. 22, 2013 Rise Set
Actual Time 6:58 AM PST 4:48 PM PST
Civil Twilight 6:30 AM PST 5:16 PM PST
Nautical Twilight 5:59 AM PST 5:48 PM PST
Astronomical Twilight 5:28 AM PST 6:18 PM PST
Moon 9:54 PM PST (12/22) 10:08 AM PST (12/22)
Length of Visible Light 10h 45m
Length of Day
9h 49m
Waning Gibbous, 76% of the Moon is Illuminated
Dec 22
Waning Gibbous
Dec 25
Last Quarter
Jan 1
New
Jan 7
First Quarter
Jan 15
Full

Hourly Weather History & Observations

Time (PST) Temp. Windchill Dew Point Humidity Pressure Visibility Wind Dir Wind Speed Gust Speed Precip Events Conditions
12:48 AM 48.0 °F - 27.0 °F 44% 30.02 in 10.0 mi NE 3.5 mph - N/A   Clear
1:48 AM 46.9 °F - 27.0 °F 46% 30.04 in 10.0 mi ENE 5.8 mph - N/A   Clear
2:48 AM 46.9 °F - 27.0 °F 46% 30.05 in 10.0 mi ENE 4.6 mph - N/A   Clear
3:48 AM 46.9 °F - 27.0 °F 46% 30.07 in 10.0 mi ENE 4.6 mph - N/A   Clear
4:48 AM 46.9 °F - 27.0 °F 46% 30.09 in 10.0 mi ENE 4.6 mph - N/A   Clear
5:48 AM 46.0 °F 40.6 °F 27.0 °F 47% 30.12 in 10.0 mi ENE 11.5 mph - N/A   Clear
6:48 AM 46.0 °F 40.6 °F 26.1 °F 46% 30.13 in 10.0 mi East 11.5 mph - N/A   Clear
7:48 AM 48.0 °F - 26.1 °F 42% 30.15 in 10.0 mi ENE 10.4 mph - N/A   Clear
8:48 AM 51.1 °F - 26.1 °F 38% 30.17 in 10.0 mi East 12.7 mph - N/A   Clear
9:48 AM 53.1 °F - 27.0 °F 37% 30.20 in 10.0 mi East 8.1 mph - N/A   Clear
10:48 AM 54.0 °F - 27.0 °F 35% 30.19 in 10.0 mi ENE 8.1 mph - N/A   Clear
11:48 AM 55.9 °F - 27.0 °F 33% 30.17 in 10.0 mi Variable 6.9 mph - N/A   Clear
12:48 PM 57.0 °F - 27.0 °F 32% 30.17 in 10.0 mi East 10.4 mph 16.1 mph N/A   Clear
1:48 PM 55.9 °F - 27.0 °F 33% 30.16 in 10.0 mi ENE 9.2 mph - N/A   Clear
2:48 PM 55.9 °F - 26.1 °F 32% 30.17 in 10.0 mi ENE 9.2 mph - N/A   Clear
3:48 PM 53.1 °F - 24.1 °F 32% 30.19 in 10.0 mi ENE 9.2 mph - N/A   Clear
4:48 PM 48.9 °F - 25.0 °F 39% 30.21 in 10.0 mi ENE 6.9 mph - N/A   Clear
5:48 PM 48.0 °F - 24.1 °F 39% 30.23 in 10.0 mi ENE 5.8 mph - N/A   Clear
6:48 PM 48.0 °F - 23.0 °F 37% 30.25 in 10.0 mi ENE 6.9 mph - N/A   Clear
7:48 PM 48.0 °F - 23.0 °F 37% 30.25 in 10.0 mi ENE 8.1 mph - N/A   Clear
8:48 PM 46.9 °F - 24.1 °F 41% 30.25 in 10.0 mi ENE 6.9 mph - N/A   Clear
9:48 PM 46.9 °F - 24.1 °F 41% 30.26 in 10.0 mi ENE 8.1 mph - N/A   Clear
10:48 PM 46.9 °F - 24.1 °F 41% 30.27 in 10.0 mi ENE 10.4 mph 20.7 mph N/A   Clear
11:48 PM 46.9 °F - 24.1 °F 41% 30.26 in 10.0 mi ENE 12.7 mph - N/A   Clear